"Time","Temp","Dewpoint","Humidity","Pressure","Direction","Speed","Gust","Precip","PrecipRate"
"00:04:59","38.1","32.8","80.8","30.17","340","2.3","11.5","0.00","0.00"
"00:09:58","37.8","32.9","82.4","30.17","335","1.4","5","0.00","0.00"
"00:14:57","37.6","32.9","83.1","30.17","324","1","4","0.00","0.00"
"00:19:59","37.3","33","84.2","30.17","338","0.8","4","0.01","0.01"
"00:24:56","37.1","33","85","30.17","32","0.6","3.5","0.01","0.01"
"00:29:58","36.9","32.9","85.5","30.17","43","0.9","3.5","0.01","0.01"
"00:34:56","36.6","32.8","86","30.17","350","1.1","5","0.02","0.01"
"00:39:58","36.4","32.6","86.1","30.17","338","1.1","4","0.02","0.02"
"00:44:59","36.2","32.7","87","30.17","341","1.9","6","0.02","0.02"
"00:49:56","36","32.6","87.2","30.17","342","1.6","6","0.02","0.02"
"00:54:58","35.9","32.7","88","30.17","345","2.3","6","0.02","0.01"
"00:59:59","35.7","32.5","88","30.17","346","3.1","7","0.03","0.01"
"01:04:56","35.6","32.6","88.8","30.16","337","3.4","7","0.03","0.03"
"01:09:58","35.3","32.4","89","30.16","343","3.1","9.2","0.03","0.03"
"01:14:56","35.2","32.4","89.6","30.16","347","3","10","0.03","0.03"
"01:19:57","35","32.4","90","30.16","343","4.8","10.4","0.04","0.04"
"01:24:59","34.7","32.1","90","30.16","336","3.6","10.4","0.04","0.03"
"01:29:56","34.6","32.2","90.9","30.16","339","4.2","10","0.04","0.03"
"01:34:58","34.6","32.2","91","30.16","342","4","12","0.04","0.03"
"01:39:56","34.4","32","91","30.16","343","5.1","13","0.04","0.02"
"01:44:58","34.3","31.9","91","30.16","343","2.5","7","0.04","0.02"
"01:49:59","34.1","31.7","91.1","30.16","339","3.4","7","0.04","0.02"
"01:54:57","33.9","31.8","92","30.16","333","3.1","9","0.04","0.02"
"01:59:59","33.8","31.7","92","30.16","323","2.5","8.1","0.04","0.02"
"02:04:56","33.7","31.6","92","30.16","0","3.4","10.4","0.04","0.01"
"02:09:58","33.7","31.6","92","30.16","338","2.2","6","0.04","0.01"
"02:14:56","33.5","31.4","92","30.16","338","2.2","5","0.04","0.01"
"02:19:58","33.5","31.4","92","30.15","343","1.9","6","0.04","0.01"
"02:24:56","33.4","31.3","92.1","30.15","326","1.3","5.8","0.04","0.00"
"02:29:57","33.4","31.6","93","30.16","326","1.1","3.5","0.04","0.00"
"02:34:59","33.3","31.5","93","30.16","326","1.1","4","0.04","0.00"
"02:39:57","33.3","31.5","93","30.16","326","0.4","3.5","0.04","0.00"
"02:44:59","33.2","31.4","93","30.16","354","0.5","3.5","0.04","0.00"
"02:49:57","33.2","31.4","93","30.16","36","0.5","2.3","0.04","0.00"
"02:54:59","33.1","31.3","93","30.16","48","0.2","1.2","0.04","0.00"
"02:59:57","33","31.2","93","30.17","48","0.1","1.2","0.04","0.00"
"03:04:59","32.9","31.1","93","30.17","48","0","1.2","0.04","0.00"
"03:09:57","32.9","31.1","93","30.17","48","0.1","1.2","0.04","0.00"
"03:14:59","32.8","31","93","30.17","26","1","4","0.04","0.00"
"03:19:57","32.8","31","93","30.16","5","0.2","2.3","0.04","0.00"
"03:24:59","32.8","31","93","30.16","5","0.4","2.3","0.04","0.00"
"03:29:57","32.8","31.1","93.5","30.16","5","0.5","2.3","0.04","0.00"
"03:34:59","32.8","31.3","94","30.16","5","0.2","2.3","0.04","0.00"
"03:39:57","32.7","31.2","94","30.16","5","0.6","2.3","0.04","0.00"
"03:44:59","32.7","31.2","94","30.16","5","0.4","2.3","0.04","0.00"
"03:49:57","32.7","31.2","94","30.16","5","0.3","2.3","0.04","0.00"
"03:54:59","32.7","31.2","94","30.16","5","0","1.2","0.04","0.00"
"03:59:57","32.7","31.2","94","30.16","5","0.3","2.3","0.04","0.00"
"04:04:59","32.7","31.2","94","30.16","5","0.4","2.3","0.04","0.00"
"04:09:57","32.6","31.1","94","30.16","10","0.3","3.5","0.04","0.00"
"04:14:59","32.6","31.1","94","30.17","11","0.1","1.2","0.04","0.00"
"04:19:57","32.6","31.1","94","30.17","11","0.1","1.2","0.04","0.00"
"04:24:59","32.6","31.1","94","30.17","11","0.5","2.3","0.04","0.00"
"04:29:57","32.6","31.1","94","30.17","357","1.4","4","0.04","0.00"
"04:34:59","32.6","31.1","94","30.17","355","0.8","3.5","0.04","0.00"
"04:39:57","32.6","31.1","94","30.17","1","1.6","4","0.04","0.00"
"04:44:59","32.6","31.1","94","30.17","0","1","5","0.04","0.00"
"04:49:57","32.6","31.1","94","30.16","348","0.7","4","0.04","0.00"
"04:54:59","32.5","31","94","30.16","337","0.9","3.5","0.04","0.00"
"04:59:57","32.5","31","94","30.16","338","0.4","2.3","0.04","0.00"
"05:04:58","32.5","31","94","30.16","338","0.5","3.5","0.04","0.00"
"05:09:56","32.5","31","94","30.16","338","0.3","3","0.04","0.00"
"05:14:58","32.4","30.9","94","30.16","338","0.8","3.5","0.04","0.00"
"05:19:56","32.4","30.9","94","30.16","338","0.7","2.3","0.04","0.00"
"05:24:58","32.4","30.9","94","30.16","338","0.8","3.5","0.04","0.00"
"05:29:59","32.4","30.9","94","30.16","338","0.3","2.3","0.04","0.00"
"05:34:57","32.4","30.9","94","30.16","338","0.8","3.5","0.04","0.00"
"05:39:56","32.3","30.8","94","30.16","338","0.7","2.3","0.04","0.00"
"05:44:58","32.3","30.8","94","30.17","338","0.9","3.5","0.04","0.00"
"05:49:59","32.3","30.8","94","30.17","340","0.9","4","0.04","0.00"
"05:54:57","32.3","30.8","94","30.17","344","0.6","3.5","0.04","0.00"
"05:59:59","32.3","30.8","94","30.17","344","0.8","2.3","0.04","0.00"
"06:04:56","32.3","30.8","94","30.16","342","1","4","0.04","0.00"
"06:09:59","32.3","30.8","94","30.16","341","1.1","4","0.04","0.00"
"06:14:56","32.2","30.7","94","30.16","303","1.7","4","0.04","0.00"
"06:19:57","32.2","30.7","94","30.16","333","1.9","5","0.04","0.00"
"06:24:55","32.1","30.6","94","30.16","331","1.2","4","0.04","0.00"
"06:29:57","32.1","30.6","94","30.17","333","1.1","4","0.04","0.00"
"06:34:59","32.1","30.6","94","30.17","336","1.7","3.5","0.04","0.00"
"06:39:58","32","30.5","94","30.17","2","1.2","4","0.04","0.00"
"06:44:56","32","30.5","94","30.17","341","2.3","11","0.04","0.00"
"06:49:57","31.9","30.4","94","30.17","346","3.2","11.5","0.04","0.00"
"06:54:59","31.8","30.2","93.7","30.17","330","2.7","10.4","0.04","0.00"
"06:59:57","31.7","29.9","93","30.18","344","2.7","8.1","0.04","0.00"
"07:04:58","31.7","29.9","93","30.18","353","3","9","0.04","0.00"
"07:09:56","31.5","29.7","93","30.18","344","3.3","10.4","0.04","0.00"
"07:14:58","31.3","29.5","93","30.18","350","2.5","9.2","0.04","0.00"
"07:19:56","31.2","29.4","93","30.18","337","3","7","0.04","0.00"
"07:24:58","31.1","29.3","93","30.18","340","1.7","6.9","0.04","0.00"
"07:29:56","31","29.2","93","30.19","338","2.5","6","0.04","0.00"
"07:34:58","31","29.2","93","30.19","339","2.5","9.2","0.04","0.00"
"07:39:56","30.8","29","93","30.19","351","2.2","5.8","0.04","0.00"
"07:44:58","30.7","28.9","93","30.19","339","3","10.4","0.04","0.00"
"07:49:59","30.6","28.8","92.8","30.19","340","2.7","7","0.04","0.00"
"07:54:56","30.5","28.5","92.2","30.19","332","2.9","7","0.04","0.00"
"07:59:58","30.3","28.3","92","30.19","338","2.5","10.4","0.04","0.00"
"08:04:59","30.2","28.2","92","30.19","339","2.1","6","0.04","0.00"
"08:09:57","30.1","28.1","92","30.19","338","1.8","6","0.04","0.00"
"08:14:59","30.1","28.1","92","30.21","345","2.9","7","0.04","0.00"
"08:19:56","30","28","92","30.21","340","1.7","5","0.04","0.00"
"08:24:58","30","28","92","30.21","347","2.2","6","0.04","0.00"
"08:29:59","30","28.1","92.3","30.21","340","2","7","0.04","0.00"
"08:34:57","30","28","92","30.21","335","2.5","6","0.04","0.00"
"08:39:59","30","28.1","92.4","30.21","351","1.6","4","0.04","0.00"
"08:44:56","30","28.1","92.5","30.21","334","1","4","0.04","0.00"
"08:49:58","30","28.1","92.7","30.21","328","1.8","4","0.04","0.00"
"08:54:59","30.1","28.3","93","30.21","340","1.9","6","0.04","0.00"
"08:59:57","30.1","28.3","93","30.21","348","1.3","4","0.04","0.00"
"09:04:58","30.2","28.4","93","30.21","336","1.6","6","0.04","0.00"
"09:09:56","30.1","28.2","92.4","30.21","343","2.1","5.8","0.04","0.00"
"09:14:58","30","28","92","30.21","342","2.3","6","0.04","0.00"
"09:19:55","29.9","27.9","92","30.21","345","2.3","5","0.04","0.00"
"09:24:57","29.7","27.7","92","30.21","324","1.8","5","0.04","0.00"
"09:29:59","29.7","27.7","92","30.21","356","1.8","4","0.04","0.00"
"09:34:57","29.6","27.6","92","30.21","354","1.7","6","0.04","0.00"
"09:39:59","29.5","27.5","92","30.21","357","1.2","5","0.04","0.00"
"09:44:56","29.5","27.6","92.6","30.21","347","1.6","4","0.04","0.00"
"09:49:58","29.5","27.7","93","30.21","353","1.2","3.5","0.04","0.00"
"09:54:59","29.6","27.8","93","30.21","1","1.4","4","0.04","0.00"
"09:59:57","29.6","27.8","93","30.22","355","0.7","3.5","0.04","0.00"
"10:04:58","29.6","27.8","93","30.22","355","0.9","4","0.04","0.00"
"10:09:56","29.7","27.9","93","30.22","355","0.8","3.5","0.04","0.00"
"10:14:57","29.8","28","92.9","30.22","349","0.6","3.5","0.04","0.00"
"10:19:59","29.9","27.9","92","30.21","349","0.1","1.2","0.04","0.00"
"10:24:57","30","28","92","30.21","349","0.1","2.3","0.04","0.00"
"10:29:59","30.1","28.1","92","30.21","42","0.4","2.3","0.04","0.00"
"10:34:57","30.1","28","91.6","30.21","20","0.3","2.3","0.04","0.00"
"10:39:59","30.2","27.9","91","30.21","21","0.6","2.3","0.04","0.00"
"10:44:56","30.3","28","91","30.22","22","0.4","2.3","0.04","0.00"
"10:49:58","30.4","28","90.7","30.22","23","0.2","1.2","0.04","0.00"
"10:54:59","30.4","27.8","90","30.22","23","0.4","2.3","0.04","0.00"
"10:59:56","30.5","27.9","90","30.22","22","0.6","4","0.04","0.00"
"11:04:58","30.5","27.9","90","30.21","320","1.2","3.5","0.04","0.00"
"11:09:59","30.6","28","90","30.21","329","1","4","0.04","0.00"
"11:14:57","30.6","28","90","30.21","338","0.9","4","0.04","0.00"
"11:19:59","30.8","28.1","89.7","30.21","335","1.1","4","0.04","0.00"
"11:24:56","30.8","27.9","89","30.21","349","1.3","5","0.04","0.00"
"11:29:58","30.8","27.9","89","30.21","355","0.5","3.5","0.04","0.00"
"11:34:56","30.8","27.9","89","30.20","348","0.8","4","0.04","0.00"
"11:39:58","30.5","27.5","88.3","30.20","56","1.4","4","0.04","0.00"
"11:44:56","30.2","27.1","88","30.20","61","0.3","2.3","0.04","0.00"
"11:49:57","30.1","27.2","88.8","30.20","62","0.3","2.3","0.05","0.01"
"11:54:59","30.1","27.3","89","30.20","61","0.2","1.2","0.05","0.01"
"11:59:57","30.1","27.3","89","30.20","60","0.3","3","0.05","0.01"
"12:04:58","30.3","27.3","88.7","30.20","61","0.8","3.5","0.06","0.01"
"12:09:56","30.5","27.5","88.9","30.20","52","0.7","3.5","0.06","0.02"
"12:14:58","30.7","27.8","88.8","30.20","18","0.4","3.5","0.06","0.02"
"12:19:56","30.8","27.7","88","30.18","24","0.2","1.2","0.06","0.02"
"12:24:58","30.9","27.8","88","30.18","24","0.8","2.3","0.07","0.03"
"12:29:56","30.9","27.8","88.1","30.18","58","1.1","3.5","0.07","0.03"
"12:34:57","30.9","28","89","30.17","29","0.6","3.5","0.07","0.03"
"12:39:59","31","28.1","89","30.17","18","1.1","3.5","0.07","0.03"
"12:44:57","31.1","28.2","89","30.17","12","1.3","3.5","0.08","0.04"
"12:49:59","31.2","28.3","89","30.17","6","0.8","4","0.08","0.04"
"12:54:56","31.3","28.4","89","30.17","347","1.7","4","0.08","0.03"
"12:59:58","31.3","28.4","89","30.17","334","1","6","0.08","0.03"
"13:04:55","31.4","28.5","89","30.16","344","2.1","5.8","0.08","0.03"
"13:09:57","31.3","28.2","88.1","30.16","337","2.5","7","0.08","0.02"
"13:14:59","31.4","28.3","88.4","30.16","330","0.2","2.3","0.08","0.02"
"13:19:57","31.4","28.2","87.6","30.15","334","0.3","2.3","0.09","0.03"
"13:24:59","31.4","28.2","87.7","30.15","331","0.8","4","0.09","0.03"
"13:29:57","31.6","28.3","87.3","30.15","331","0.3","2.3","0.10","0.03"
"13:34:59","31.7","28.2","86.8","30.14","331","0.6","3.5","0.10","0.03"
"13:39:57","31.8","28.1","86","30.14","331","0.6","3.5","0.10","0.03"
"13:44:58","32","28.3","86.1","30.14","331","1","3.5","0.11","0.03"
"13:48:06","32.1","28.3","85.6","30.14","331","1.4","3.5","0.11","0.03"
"14:19:59","32.6","27.1","79.7","30.13","334","2.3","7","0.12","0.04"
"14:24:59","32.8","26.3","76.6","30.13","343","2.7","7","0.12","0.03"
"14:29:57","32.9","26.2","76.2","30.13","346","1.8","6","0.13","0.04"
"14:34:57","33","26","75.1","30.12","340","3.3","8.1","0.13","0.03"
"14:39:56","32.8","25.4","73.9","30.12","356","2.8","7","0.13","0.03"
"14:44:59","32.8","25.5","74.5","30.12","325","1.7","7","0.13","0.03"
"14:49:59","32.9","25.6","74.2","30.12","322","3","7","0.13","0.02"
"14:54:59","33","25.7","74.5","30.12","331","1.4","4.6","0.14","0.03"
"14:59:58","33.1","26","74.8","30.12","7","2.1","7","0.14","0.03"
"15:04:56","33","25.4","73.3","30.11","319","3","9.2","0.14","0.02"
"15:09:58","32.8","25.3","73.6","30.11","350","1.2","4","0.14","0.02"
"15:14:57","32.7","25","73","30.11","339","2.5","7","0.15","0.03"
"15:19:57","32.6","24.9","73","30.11","337","3","7","0.15","0.03"
"15:24:56","32.4","24.3","71.7","30.11","340","2.4","6","0.15","0.03"
"15:29:56","32.3","24.1","71.4","30.11","349","2.6","7","0.15","0.03"
"15:34:59","32.3","24.2","71.9","30.10","338","2.6","6","0.15","0.02"
"15:39:59","32.2","24.5","72.9","30.10","336","1","3.5","0.15","0.02"
"15:44:58","32.2","24.5","72.8","30.10","336","1","4","0.15","0.02"
"15:49:57","32.3","24.4","72.5","30.10","336","1.4","4","0.15","0.02"
"15:54:57","32.3","24.6","73.1","30.10","336","0.9","4","0.15","0.02"
"15:59:56","32.3","24.9","74","30.10","336","0.2","2","0.15","0.01"
"16:04:58","32.4","25","74.2","30.10","336","0.5","2.3","0.15","0.01"
"16:09:56","32.5","25","73.8","30.10","327","0.5","4","0.15","0.01"
"16:14:56","32.6","25.1","73.7","30.10","327","0.3","2.3","0.15","0.01"
"16:19:56","33.1","25.7","74","30.09","31","0.5","3.5","0.16","0.01"
"16:24:56","33.4","25","71","30.09","353","2.1","4","0.16","0.01"
"16:29:59","33.9","25.4","70.8","30.09","349","0.2","3.5","0.16","0.01"
"16:34:58","34.4","25.8","70.4","30.09","349","0.4","2.3","0.17","0.02"
"16:39:58","34.7","25.7","69.1","30.09","349","0.7","3.5","0.17","0.02"
"16:44:57","34.8","25.5","68.7","30.09","349","0","0","0.17","0.02"
"16:49:57","34.7","25.2","67.9","30.09","349","0.6","3.5","0.17","0.02"
"16:54:57","34.6","25.3","68.5","30.09","349","0","1.2","0.17","0.02"
"16:59:57","34.3","25.2","69","30.09","349","0","0","0.17","0.02"
"17:04:59","33.8","24.8","69.3","30.09","349","0.4","2.3","0.17","0.02"
"17:09:57","33.2","24.7","70.6","30.09","349","0.2","2.3","0.17","0.02"
"17:14:57","32.9","24.6","71.4","30.09","349","0.2","1.2","0.17","0.02"
"17:19:57","32.6","24.6","72","30.09","349","0","0","0.17","0.02"
"17:24:57","32.4","24.4","72","30.09","349","0","0","0.17","0.01"
"17:29:57","32.2","24.5","72.9","30.09","349","0.1","2.3","0.17","0.01"
"17:34:57","32","24.5","73.6","30.09","349","0.1","3","0.17","0.01"
"17:39:57","31.7","24.3","73.7","30.09","344","2.4","6","0.17","0.00"
"17:44:57","31.4","23.5","72.3","30.09","324","1.3","5.8","0.17","0.00"
"17:49:57","31.2","23","71.6","30.09","325","1.2","3.5","0.17","0.00"
"17:54:57","30.9","22.7","71.3","30.09","327","1.1","3.5","0.17","0.00"
"17:59:57","30.6","22.6","72.1","30.09","327","0.8","4","0.17","0.00"
"18:04:59","30.3","22.4","72.1","30.09","327","1","3.5","0.17","0.00"
"18:09:57","30","22.1","72","30.09","327","0.7","4","0.17","0.00"
"18:14:57","29.8","21.9","72","30.10","328","0.9","4","0.17","0.00"
"18:19:57","29.6","21.7","72","30.10","329","0.3","3.5","0.17","0.00"
"18:24:57","29.3","21.7","73","30.10","329","0.3","2.3","0.17","0.00"
"18:29:56","29","21.7","73.9","30.10","329","0.4","2.3","0.17","0.00"
"18:34:56","28.7","21.5","74.1","30.10","329","0","1.2","0.17","0.00"
"18:39:56","28.5","21.5","74.7","30.10","329","0","0","0.17","0.00"
"18:44:56","28.2","21.1","74.3","30.11","329","0.4","3","0.17","0.00"
"18:49:58","28","21.2","75.5","30.11","329","1.5","3.5","0.17","0.00"
"18:54:58","27.9","21.4","76.4","30.11","329","0.4","3.5","0.17","0.00"
"18:59:57","27.8","21.5","77","30.11","343","0.9","4","0.17","0.00"
"19:04:59","27.8","21.4","76.6","30.11","317","1.8","4","0.17","0.00"
"19:09:57","28","21.2","75.5","30.11","273","1.2","3.5","0.17","0.00"
"19:14:57","28","21.3","75.7","30.12","285","1.9","4","0.17","0.00"
"19:19:57","28.1","21.1","74.5","30.12","309","1.2","4","0.17","0.00"
"19:24:58","28.1","21","74.3","30.12","309","0.2","1.2","0.17","0.00"
"19:29:57","27.9","20.9","74.9","30.12","309","0","1.2","0.17","0.00"
"19:34:57","27.6","21","76","30.12","309","0","0","0.17","0.00"
"19:39:58","27.4","20.8","76","30.12","311","1","4","0.17","0.00"
"19:44:57","27.1","20.2","75","30.12","335","1.6","5","0.17","0.00"
"19:49:57","27.1","20.4","75.7","30.12","333","1.2","3.5","0.17","0.00"
"19:54:57","27","20.2","75.3","30.12","330","0.9","4","0.17","0.00"
"19:59:57","26.9","20","75","30.12","330","0.3","3.5","0.17","0.00"
"20:04:59","26.8","20.4","76.7","30.12","330","0.2","2.3","0.17","0.00"
"20:09:57","26.6","20.4","77","30.12","330","0","0","0.17","0.00"
"20:14:58","26.3","20.2","77.4","30.13","330","0","0","0.17","0.00"
"20:19:57","26.1","20.2","78","30.13","330","0","0","0.17","0.00"
"20:24:57","25.8","19.9","78","30.13","330","0","0","0.17","0.00"
"20:29:57","25.6","20","79","30.13","330","0","0","0.17","0.00"
"20:34:57","25.4","19.9","79.4","30.13","330","0","0","0.17","0.00"
"20:39:57","25.2","20.1","80.6","30.13","330","0.1","1.2","0.17","0.00"
"20:44:57","25","20.3","82","30.13","330","0.1","1.2","0.17","0.00"
"20:49:56","25","20.6","83","30.13","330","0","0","0.17","0.00"
"20:54:57","24.9","20.5","82.8","30.13","330","0","0","0.17","0.00"
"20:59:56","24.8","20.1","82","30.13","330","0","0","0.17","0.00"
"21:04:59","24.7","20.2","82.6","30.13","330","0","0","0.17","0.00"
"21:09:57","24.5","20.1","83","30.13","330","0","0","0.17","0.00"
"21:14:57","24.4","20.2","83.9","30.13","330","0","0","0.17","0.00"
"21:19:49","24.2","20.1","84","30.13","330","0","0","0.17","0.00"
"21:24:57","24.1","20.1","84.7","30.13","330","0","0","0.17","0.00"
"21:29:57","24","20.2","85.3","30.13","330","0","0","0.17","0.00"
"21:34:57","24","20.4","86","30.13","330","0","0","0.17","0.00"
"21:39:58","24.1","20.7","86.8","30.13","330","0","0","0.17","0.00"
"21:44:58","24.1","20.7","86.8","30.13","330","0","0","0.17","0.00"
"21:49:58","24.1","20.8","87","30.13","330","0","0","0.17","0.00"
"21:54:58","24.1","20.9","87.2","30.13","330","0","0","0.17","0.00"
"21:59:58","24.3","21.2","87.9","30.13","330","0","0","0.17","0.00"
"22:04:57","24.5","21.5","88","30.13","330","0","0","0.17","0.00"
"22:09:59","24.6","21.6","88","30.13","330","0","0","0.17","0.00"
"22:14:59","24.7","21.7","88","30.13","330","0","0","0.17","0.00"
"22:19:59","24.7","21.7","88","30.13","330","0","0","0.17","0.00"
"22:24:59","24.9","21.9","88.4","30.13","330","0","0","0.17","0.00"
"22:29:59","25","22.2","89","30.13","330","0","0","0.17","0.00"
"22:34:56","25.1","22.3","89","30.13","330","0","0","0.17","0.00"
"22:39:56","25.2","22.4","89","30.13","330","0","0","0.17","0.00"
"22:44:56","25.3","22.5","89","30.13","330","0","0","0.17","0.00"
"22:49:59","25.3","22.5","89","30.13","330","0","0","0.17","0.00"
"22:54:59","25.3","22.4","88.7","30.13","330","0","0","0.17","0.00"
"22:59:59","25.4","22.3","88.2","30.13","330","0","0","0.17","0.00"
"23:04:53","25.5","22.6","88.6","30.13","330","0","0","0.17","0.00"
"23:09:56","25.7","22.9","89","30.13","330","0","0","0.17","0.00"
"23:14:56","25.8","23","89","30.13","330","0","0","0.17","0.00"
"23:19:56","25.9","22.9","88.5","30.13","330","0","0","0.17","0.00"
"23:24:56","25.9","22.8","88","30.13","330","0","0","0.17","0.00"
"23:29:56","25.9","22.7","87.4","30.13","330","0","0","0.17","0.00"
"23:34:56","26","22.6","86.9","30.13","330","0","0","0.17","0.00"
"23:39:56","26","22.7","87.1","30.13","330","0.8","2.3","0.17","0.00"
"23:44:59","26.1","22.9","87.8","30.13","330","0.1","1.2","0.17","0.00"
"23:49:59","26.1","22.8","87.1","30.13","330","0","0","0.17","0.00"
"23:54:59","26.1","22.6","86.2","30.13","330","0.1","2","0.17","0.00"
"23:59:59","26.2","22.8","86.8","30.13","330","0.4","2.3","0.17","0.00"
